Flag for U.S.A. Weather past 2 weeks in Vista, California, U.S.A.

Now
71 °F

Sunny.


Feels Like: 73 °F
Forecast: 68 / 81 °F
Wind: 5 mph from West

Location: McClellan-Palomar Airport

Current Time: Aug 1, 2014 at 8:13:11 PM

Latest Report: Aug 1, 2014 at 6:53 PM


Visibility: 10 mi

Pressure: 29.86 "Hg

Humidity: 76%

Dew point: 63 °F

Location of VistaLocation

Historic Weather in Vista — Graph

°F

Vista temperature yesterday

Maximum temperature yesterday: 78 °F (at 2:53 PM)
Minimum temperature yesterday: 70 °F (at 2:03 AM)
Average temperature yesterday: 73 °F

Past Weeks' High & Low Weather Summary

 TemperatureHumidityPressure
High83 °F (Jul 28, 12:53 PM)97% (Jul 24, 6:53 AM)30.06 "Hg (Jul 24, 6:53 AM)
Low64 °F (Jul 23, 5:53 AM)37% (Jul 28, 12:53 PM)29.74 "Hg (Jul 24, 5:53 PM)
Average71 °F75%29.94 "Hg
* Reported Jul 17 6:53 PM — Aug 1 6:53 PM, Vista, Weather by CustomWeather, © 2014

Note: Actual official high and low records may vary slightly from our data, if they occured in-between our weather recording intervals... More about our weather records

Advertising

Vista weather history for previous 24 hours

 ConditionsComfort  
Time TempWeatherWind HumidityBarometerVisibility
6:53 PM
Aug 1
71 °FSunny.5 mph76%29.86 "Hg10 mi
5:53 PM72 °FSunny.6 mph73%29.86 "Hg10 mi
4:53 PM73 °FSunny.5 mph71%29.88 "Hg10 mi
3:53 PM73 °FSunny.7 mph71%29.89 "Hg10 mi
2:53 PM73 °FSunny.9 mph71%29.90 "Hg10 mi
1:53 PM73 °FSunny.9 mph71%29.89 "Hg10 mi
12:53 PM74 °FSunny.7 mph69%29.90 "Hg10 mi
11:53 AM73 °FSunny.6 mph74%29.92 "Hg10 mi
10:53 AM74 °FSunny.8 mph71%29.91 "Hg10 mi
9:53 AM74 °FSunny.5 mph71%29.91 "Hg10 mi
8:53 AM71 °FOvercast.No wind78%29.91 "Hg9 mi
7:53 AM70 °FOvercast.No wind81%29.91 "Hg8 mi
6:53 AM69 °FOvercast.No wind84%29.90 "Hg8 mi
5:53 AM69 °FOvercast.No wind84%29.89 "Hg10 mi
4:53 AM69 °FOvercast.No wind81%29.88 "Hg10 mi
3:53 AM69 °FOvercast.No wind81%29.89 "Hg10 mi
2:53 AM69 °FOvercast.3 mph81%29.90 "Hg10 mi
1:53 AM69 °FOvercast.6 mph81%29.90 "Hg10 mi
12:53 AM69 °FOvercast.6 mph81%29.91 "Hg10 mi
11:53 PM
Jul 31
70 °FOvercast.3 mph81%29.91 "Hg10 mi
10:53 PM70 °FLow clouds.5 mph81%29.92 "Hg10 mi
9:53 PM70 °FPassing clouds.3 mph84%29.91 "Hg7 mi
8:53 PM70 °FClear.5 mph84%29.89 "Hg10 mi
Weather by CustomWeather, © 2014

See weather overviewHow to use our weather pages